Clarksburg, WV

10:26 AM EST on December 15, 2019 (GMT -0500)
Benedum

Weather History for KCKB - June, 2019

Change the Weather History Date:

Wednesday, June 12, 2019

  Actual Average Record
Temperature  
Mean Temperature 65 °F -  
Max Temperature 80 °F 82 °F 95 °F (1933)
Min Temperature 49 °F 55 °F 35 °F (1972)
Growing Degree Days 16 (Base 50)    
Moisture  
Dew Point 50 °F    
Average Humidity 60    
Maximum Humidity 89    
Minimum Humidity 30    
Precipitation  
Precipitation T in - - ()
Month to date precipitation 1.08  
Year to date precipitation 18.85  
Sea Level Pressure  
Sea Level Pressure 30.00 in    
Wind  
Wind Speed 5 mph (SSE)    
Max Wind Speed 13 mph    
Max Gust Speed 17 mph    
Visibility 10 miles    
Events      
Averages and records for this station are not official NWS values.
T = Trace of Precipitation, MM = Missing Value Source: NWS Daily Summary

Daily Weather History Graph

Daily Weather History Graph

Search for Another Location

Airport or City:

Astronomy

Jun. 12, 2019 Rise Set
Actual Time 5:53 AM EDT 8:47 PM EDT
Civil Twilight 5:21 AM EDT 9:20 PM EDT
Nautical Twilight 4:40 AM EDT 10:00 PM EDT
Astronomical Twilight 3:54 AM EDT 10:47 PM EDT
Moon 3:55 PM EDT (6/12) 3:05 AM EDT (6/12)
Length of Visible Light 15h 58m
Length of Day
14h 54m
Waxing Gibbous, 76% of the Moon is Illuminated
Jun 12
Waxing Gibbous
Jun 17
Full
Jun 25
Last Quarter
Jul 2
New
Jul 9
First Quarter

Hourly Weather History & Observations

Time (EDT) Temp. Dew Point Humidity Pressure Visibility Wind Dir Wind Speed Gust Speed Precip Events Conditions
12:53 AM 57.0 °F 50.0 °F 77% 30.14 in 10.0 mi Calm Calm - N/A   Clear
1:53 AM 53.1 °F 48.0 °F 83% 30.12 in 10.0 mi Calm Calm - N/A   Clear
2:53 AM 53.1 °F 48.9 °F 86% 30.12 in 10.0 mi Calm Calm - N/A   Clear
3:53 AM 52.0 °F 48.9 °F 89% 30.12 in 10.0 mi NE 3.5 mph - N/A   Clear
4:53 AM 52.0 °F 48.0 °F 86% 30.12 in 10.0 mi Calm Calm - N/A   Clear
5:53 AM 51.1 °F 48.0 °F 89% 30.12 in 10.0 mi Calm Calm - N/A   Clear
6:53 AM 54.0 °F 48.9 °F 83% 30.12 in 10.0 mi Calm Calm - N/A   Clear
7:53 AM 60.1 °F 51.1 °F 72% 30.12 in 10.0 mi Calm Calm - N/A   Clear
8:53 AM 62.1 °F 50.0 °F 65% 30.11 in 10.0 mi Calm Calm - N/A   Clear
9:53 AM 66.0 °F 48.9 °F 54% 30.09 in 10.0 mi SE 4.6 mph - N/A   Clear
10:53 AM 69.1 °F 51.1 °F 53% 30.06 in 10.0 mi Variable 4.6 mph - N/A   Clear
11:53 AM 73.0 °F 50.0 °F 44% 30.03 in 10.0 mi SE 5.8 mph - N/A   Clear
12:53 PM 77.0 °F 50.0 °F 39% 29.99 in 10.0 mi East 9.2 mph - N/A   Unknown
1:53 PM 80.1 °F 46.9 °F 31% 29.96 in - SE 8.1 mph - N/A   Unknown
2:53 PM 79.0 °F 46.0 °F 31% 29.96 in 10.0 mi South 9.2 mph 17.3 mph N/A   Clear
3:53 PM 79.0 °F 48.9 °F 35% 29.94 in 10.0 mi South 9.2 mph - N/A   Clear
4:53 PM 78.1 °F 51.1 °F 39% 29.93 in 10.0 mi SSW 5.8 mph - N/A   Scattered Clouds
5:53 PM 75.0 °F 53.1 °F 46% 29.90 in 10.0 mi SSW 4.6 mph - N/A   Clear
6:53 PM 73.9 °F 55.0 °F 52% 29.89 in 10.0 mi SE 3.5 mph - N/A   Partly Cloudy
7:53 PM 73.0 °F 51.1 °F 46% 29.87 in 10.0 mi SSE 3.5 mph - N/A   Clear
8:53 PM 72.0 °F 50.0 °F 46% 29.87 in 10.0 mi South 4.6 mph - N/A   Clear
9:53 PM 71.1 °F 50.0 °F 47% 29.85 in 10.0 mi ESE 9.2 mph - N/A   Scattered Clouds
10:53 PM 70.0 °F 48.9 °F 47% 29.85 in 10.0 mi SE 8.1 mph - 0.00 in   Mostly Cloudy
11:53 PM 69.1 °F 48.0 °F 47% 29.84 in 10.0 mi SE 9.2 mph - N/A   Mostly Cloudy